• In Latvia
  • List of Countries
  • For 7 days
  • Water Temperature
  • Satellite Maps
  • Weather Map
  • Weather Widgets
  • user-avatar
    Login

    Hourly Weather Belém

    Today, 19 September, Wednesday

    Time Temperature Precipitation Wind Pressure Humidity
    00:00 +26°C° 0.2 mm 2 mps 758 mmHg 95%
    01:00 +26°C° 0 mm 2 mps 757 mmHg 95%
    02:00 +25°C° 0 mm 1 mps 757 mmHg 95%
    03:00 +25°C° 0 mm 1 mps 757 mmHg 95%
    04:00 +25°C° 0 mm 1 mps 757 mmHg 95%
    05:00 +25°C° 0 mm 2 mps 757 mmHg 95%
    06:00 +25°C° 0 mm 2 mps 757 mmHg 95%
    07:00 +27°C° 0 mm 2 mps 758 mmHg 88%
    08:00 +28°C° 0 mm 2 mps 758 mmHg 82%
    09:00 +30°C° 0 mm 2 mps 759 mmHg 75%
    10:00 +31°C° 0.2 mm 2 mps 759 mmHg 70%
    11:00 +32°C° 0.2 mm 2 mps 759 mmHg 65%
    12:00 +34°C° 0.2 mm 2 mps 759 mmHg 61%
    13:00 +34°C° 0.7 mm 2 mps 758 mmHg 64%
    14:00 +32°C° 0.7 mm 2 mps 757 mmHg 67%
    15:00 +32°C° 0.7 mm 2 mps 757 mmHg 70%
    16:00 +30°C° 0.8 mm 2 mps 757 mmHg 77%
    17:00 +29°C° 0.8 mm 2 mps 757 mmHg 84%
    18:00 +27°C° 0.8 mm 2 mps 757 mmHg 90%
    19:00 +27°C° 0.9 mm 2 mps 758 mmHg 92%
    20:00 +26°C° 0.9 mm 2 mps 758 mmHg 94%
    21:00 +26°C° 0.9 mm 2 mps 759 mmHg 95%
    22:00 +25°C° 0.3 mm 2 mps 759 mmHg 95%
    23:00 +25°C° 0.3 mm 2 mps 759 mmHg 95%

    Tomorrow, 20 September, Thursday

    Time Temperature Precipitation Wind Pressure Humidity
    00:00 +25°C° 0.3 mm 2 mps 759 mmHg 95%
    01:00 +25°C° 0 mm 2 mps 758 mmHg 95%
    02:00 +25°C° 0 mm 2 mps 758 mmHg 95%
    03:00 +25°C° 0 mm 2 mps 757 mmHg 95%
    04:00 +25°C° 0 mm 2 mps 757 mmHg 95%
    05:00 +25°C° 0 mm 2 mps 757 mmHg 95%
    06:00 +25°C° 0 mm 2 mps 758 mmHg 95%
    07:00 +26°C° 0 mm 2 mps 758 mmHg 88%
    08:00 +28°C° 0 mm 3 mps 758 mmHg 81%
    09:00 +30°C° 0 mm 3 mps 759 mmHg 73%
    10:00 +31°C° 0 mm 3 mps 759 mmHg 66%
    11:00 +34°C° 0 mm 3 mps 758 mmHg 58%
    12:00 +36°C° 0 mm 2 mps 758 mmHg 51%
    13:00 +35°C° 0.4 mm 3 mps 757 mmHg 57%
    14:00 +34°C° 0.4 mm 3 mps 757 mmHg 62%
    15:00 +33°C° 0.4 mm 3 mps 756 mmHg 68%
    16:00 +31°C° 0.3 mm 3 mps 756 mmHg 72%
    17:00 +30°C° 0.3 mm 3 mps 756 mmHg 76%
    18:00 +29°C° 0.3 mm 2 mps 756 mmHg 80%
    19:00 +28°C° 0 mm 2 mps 757 mmHg 83%
    20:00 +27°C° 0 mm 2 mps 757 mmHg 85%
    21:00 +26°C° 0 mm 2 mps 758 mmHg 88%
    22:00 +26°C° 0 mm 2 mps 758 mmHg 88%
    23:00 +26°C° 0 mm 2 mps 758 mmHg 88%

    Day after tomorrow, 21 September, Friday

    Time Temperature Precipitation Wind Pressure Humidity
    00:00 +26°C° 0 mm 2 mps 759 mmHg 88%
    01:00 +26°C° 0 mm 2 mps 758 mmHg 89%
    02:00 +25°C° 0 mm 2 mps 757 mmHg 90%
    03:00 +25°C° 0 mm 2 mps 757 mmHg 91%
    04:00 +25°C° 0 mm 2 mps 757 mmHg 92%
    05:00 +25°C° 0 mm 2 mps 757 mmHg 92%
    06:00 +25°C° 0 mm 2 mps 757 mmHg 93%
    07:00 +27°C° 0 mm 2 mps 758 mmHg 85%
    08:00 +28°C° 0 mm 3 mps 759 mmHg 76%
    09:00 +30°C° 0 mm 3 mps 759 mmHg 68%
    10:00 +33°C° 0 mm 3 mps 759 mmHg 62%
    11:00 +34°C° 0 mm 3 mps 759 mmHg 56%
    12:00 +36°C° 0 mm 2 mps 758 mmHg 50%
    13:00 +36°C° 0 mm 3 mps 757 mmHg 48%
    14:00 +36°C° 0 mm 3 mps 756 mmHg 47%
    15:00 +37°C° 0 mm 3 mps 756 mmHg 46%
    16:00 +35°C° 0.1 mm 2 mps 756 mmHg 53%
    17:00 +32°C° 0.1 mm 2 mps 756 mmHg 61%
    18:00 +30°C° 0.1 mm 2 mps 756 mmHg 69%
    19:00 +29°C° 0.1 mm 2 mps 756 mmHg 73%
    20:00 +28°C° 0.1 mm 2 mps 757 mmHg 78%
    21:00 +27°C° 0.1 mm 2 mps 758 mmHg 83%
    22:00 +26°C° 0 mm 2 mps 758 mmHg 83%
    23:00 +26°C° 0 mm 2 mps 758 mmHg 84%

    22 September, Saturday

    Time Temperature Precipitation Wind Pressure Humidity
    00:00 +26°C° 0 mm 2 mps 758 mmHg 85%
    01:00 +26°C° 0 mm 2 mps 757 mmHg 87%
    02:00 +25°C° 0 mm 2 mps 756 mmHg 88%
    03:00 +25°C° 0 mm 2 mps 756 mmHg 90%
    04:00 +25°C° 0 mm 2 mps 756 mmHg 91%
    05:00 +25°C° 0 mm 2 mps 756 mmHg 92%
    06:00 +24°C° 0 mm 2 mps 756 mmHg 93%
    07:00 +26°C° 0 mm 2 mps 757 mmHg 85%
    08:00 +28°C° 0 mm 2 mps 758 mmHg 78%
    09:00 +30°C° 0 mm 2 mps 758 mmHg 70%
    10:00 +32°C° 0 mm 2 mps 758 mmHg 62%
    11:00 +34°C° 0 mm 2 mps 757 mmHg 55%
    12:00 +36°C° 0 mm 2 mps 757 mmHg 47%
    13:00 +37°C° 0 mm 2 mps 756 mmHg 46%
    14:00 +37°C° 0 mm 2 mps 755 mmHg 44%
    15:00 +37°C° 0 mm 2 mps 755 mmHg 43%
    16:00 +36°C° 0 mm 2 mps 755 mmHg 51%
    17:00 +34°C° 0 mm 2 mps 755 mmHg 59%
    18:00 +31°C° 0 mm 3 mps 755 mmHg 67%
    19:00 +30°C° 0 mm 3 mps 756 mmHg 72%
    20:00 +29°C° 0 mm 3 mps 756 mmHg 76%
    21:00 +28°C° 0 mm 3 mps 757 mmHg 80%
    22:00 +27°C° 0 mm 2 mps 757 mmHg 82%
    23:00 +27°C° 0 mm 2 mps 757 mmHg 84%

    23 September, Sunday

    Time Temperature Precipitation Wind Pressure Humidity
    00:00 +26°C° 0 mm 2 mps 757 mmHg 86%
    01:00 +26°C° 0 mm 2 mps 756 mmHg 87%
    02:00 +26°C° 0 mm 2 mps 756 mmHg 89%
    03:00 +25°C° 0 mm 2 mps 755 mmHg 91%
    04:00 +25°C° 0 mm 2 mps 756 mmHg 91%
    05:00 +25°C° 0 mm 2 mps 756 mmHg 92%
    06:00 +25°C° 0 mm 2 mps 756 mmHg 92%
    07:00 +27°C° 0 mm 2 mps 757 mmHg 85%
    08:00 +29°C° 0 mm 3 mps 757 mmHg 78%
    09:00 +30°C° 0 mm 3 mps 758 mmHg 71%
    10:00 +33°C° 0 mm 3 mps 757 mmHg 64%
    11:00 +35°C° 0 mm 3 mps 757 mmHg 56%
    12:00 +36°C° 0 mm 2 mps 757 mmHg 49%
    13:00 +36°C° 0.3 mm 2 mps 756 mmHg 54%
    14:00 +35°C° 0.3 mm 2 mps 755 mmHg 60%
    15:00 +34°C° 0.3 mm 2 mps 755 mmHg 65%
    16:00 +31°C° 0.6 mm 2 mps 755 mmHg 71%
    17:00 +30°C° 0.6 mm 3 mps 755 mmHg 77%
    18:00 +28°C° 0.6 mm 3 mps 756 mmHg 83%
    19:00 +28°C° 0 mm 3 mps 756 mmHg 84%
    20:00 +28°C° 0 mm 3 mps 757 mmHg 85%
    21:00 +27°C° 0 mm 3 mps 758 mmHg 86%
    22:00 +27°C° 0 mm 2 mps 757 mmHg 87%
    23:00 +27°C° 0 mm 2 mps 757 mmHg 88%

    24 September, Monday

    Time Temperature Precipitation Wind Pressure Humidity
    00:00 +26°C° 0 mm 2 mps 757 mmHg 88%
    01:00 +26°C° 0 mm 2 mps 757 mmHg 89%
    02:00 +26°C° 0 mm 2 mps 756 mmHg 90%
    03:00 +26°C° 0 mm 2 mps 756 mmHg 91%
    04:00 +26°C° 0 mm 2 mps 756 mmHg 91%
    05:00 +26°C° 0 mm 2 mps 757 mmHg 92%
    06:00 +26°C° 0 mm 2 mps 757 mmHg 92%
    07:00 +27°C° 0 mm 2 mps 757 mmHg 86%
    08:00 +28°C° 0 mm 3 mps 758 mmHg 80%
    09:00 +30°C° 0 mm 3 mps 758 mmHg 74%
    10:00 +31°C° 0 mm 3 mps 758 mmHg 66%
    11:00 +34°C° 0 mm 2 mps 757 mmHg 59%
    12:00 +36°C° 0 mm 2 mps 757 mmHg 51%
    13:00 +35°C° 0.7 mm 2 mps 756 mmHg 58%
    14:00 +34°C° 0.7 mm 2 mps 756 mmHg 64%
    15:00 +32°C° 0.7 mm 2 mps 755 mmHg 71%
    16:00 +31°C° 0.6 mm 2 mps 755 mmHg 75%
    17:00 +30°C° 0.6 mm 2 mps 756 mmHg 79%
    18:00 +29°C° 0.6 mm 2 mps 756 mmHg 83%
    19:00 +28°C° 0.1 mm 2 mps 757 mmHg 86%
    20:00 +27°C° 0.1 mm 2 mps 757 mmHg 88%
    21:00 +27°C° 0.1 mm 2 mps 758 mmHg 91%
    22:00 +26°C° 0 mm 2 mps 758 mmHg 91%
    23:00 +26°C° 0 mm 2 mps 758 mmHg 91%
    Show more